Regional Weather Roundup
Issued by NWS Jackson, KY

Home | Current Version | Previous Version | Graphics & Text | Print | Product List | Glossary On
Versions: 1 2 3 4 5 6 7 8 9 10 11 12 13 14 15 16 17 18 19 20 21 22 23 24 25 26 27 28 29 30 31 32 33 34 35 36 37 38 39 40 41 42 43 44 45 46 47 48 49 50
000
ASUS43 KJKL 260411
RWRJKL

EAST KENTUCKY HOURLY WEATHER ROUNDUP
NATIONAL WEATHER SERVICE JACKSON KY
1100 PM EST SUN JAN 25 2015

NOTE: "FAIR" INDICATES FEW OR NO CLOUDS BELOW 12,000 FEET WITH
NO SIGNIFICANT WEATHER AND/OR OBSTRUCTIONS TO VISIBILITY.

* THESE REPORTS ARE NOT UNDER NWS QUALITY CONTROL AND MAY NOT
  REPORT WEATHER SUCH AS PRECIPITATION AND FOG.

KYZ079-080-083-085-087-088-110-112-115-119-120-260500
...EASTERN KENTUCKY...

CITY           SKY/WX    TMP DP  RH WIND       PRES   REMARKS
JACKSON        CLOUDY    43  36  76 SW3       29.65F
LONDON         CLOUDY    43  37  79 S5        29.65F
SOMERSET*      RAIN      41  41 100 SW5       29.67S
MONTICELLO*    CLOUDY    41  39  92 SW13      29.70R FOG
MIDDLESBORO*   CLOUDY    46  38  76 S5G21     29.68S
HARLAN APT*    CLOUDY    45  34  65 SE3       29.67S
HAZARD APT*    LGT RAIN  45  37  76 SW3       29.66S
BLACK MTN*       N/A     32  32 100 SE2         N/A
PIKEVILLE APT* LGT RAIN  43  36  75 S6        29.67S
BIG SANDY*     DRIZZLE   42  39  89 E6        29.67F
MOREHEAD APT*  LGT RAIN  41  39  93 VRB3      29.67S
$$

KYZ035-036-041-042-044-050-067-078-099-260500
...CENTRAL KENTUCKY...

CITY           SKY/WX    TMP DP  RH WIND       PRES   REMARKS
MT STERLING*   RAIN      41  41 100 CALM      29.66F
FLEMING/MASON* DRIZZLE   36  36  99 E5        29.67F WCI  32
DANVILLE*      RAIN      41  41 100 W5        29.65S
RICHMOND*      CLOUDY    43  39  87 S6        29.64S
LEXINGTON      CLOUDY    40  40 100 SE5       29.64F
FRANKFORT      CLOUDY    40  39  97 NW5       29.64S
$$

KYZ091>093-OHZ055-061-077-WVZ005-015-034-035-042-260500
...SOUTHERN OHIO/WEST VIRGINIA...

CITY           SKY/WX    TMP DP  RH WIND       PRES   REMARKS
COVINGTON      LGT SNOW  35  32  88 N18       29.68S FOG     WCI  24
COLUMBUS       LGT SNOW  29  27  92 N8        29.75S FOG     WCI  21
DAYTON         LGT SNOW  24  22  91 NE16      29.77S FOG     WCI  11
WILMINGTON     LGT SNOW  29  26  89 NE14      29.70F FOG     WCI  18
HUNTINGTON     LGT RAIN  39  39 100 E5        29.68F FOG
CHARLESTON     LGT RAIN  40  38  93 CALM      29.71F
PINEVILLE*     CLOUDY    40  40 100 MISG      29.72F
BECKLEY        CLOUDY    38  34  85 E3        29.68F
BLUEFIELD      CLOUDY    43  27  53 S5        29.68F
$$

VAZ002-007-008-TNZ017-027-036-066-071-260500
...SOUTHWEST VIRGINIA/EAST TENNESSEE...

CITY           SKY/WX    TMP DP  RH WIND       PRES   REMARKS
WISE*          LGT RAIN  41  32  70 S12       29.67S
JONESVILLE*    CLOUDY    41  39  93 CALM      29.70F
ABINGDON*      CLOUDY    45  32  61 CALM      29.68F
BRISTOL        LGT RAIN  43  36  76 W3        29.69F
KNOXVILLE      LGT RAIN  46  39  76 W14       29.70R
OAK RIDGE      CLOUDY    44  41  89 CALM      29.71R
CROSSVILLE     MOCLDY    42  38  85 SW6       29.67F
NASHVILLE      LGT RAIN  45  41  86 W13G18    29.72R
$$

...KEY TO REMARKS...
VSB - VISIBILITY IN MILES
WCI - WIND CHILL INDEX
HX  - HEAT INDEX

$$


USA.gov is the U.S. government's official web portal to all federal, state and local government web resources and services.